Stations météo

réclame
Mon MeteoGroup
Rotterdam Zestienhoven, Pays-Bas (6344): Température de l'air & dewpoint: 13.06.2018 20:00:00 - 19.06.2018 20:00:00 (CEST)Rotterdam Zestienhoven, Pays-Bas (6344): Température de l'air 5cm: 13.06.2018 20:00:00 - 19.06.2018 20:00:00 (CEST)Rotterdam Zestienhoven, Pays-Bas (6344): Vitesse du vent & gusts: 13.06.2018 20:00:00 - 19.06.2018 20:00:00 (CEST)Rotterdam Zestienhoven, Pays-Bas (6344): Direction du vent: 13.06.2018 20:00:00 - 19.06.2018 20:00:00 (CEST)Rotterdam Zestienhoven, Pays-Bas (6344): reduced air pressure: 13.06.2018 20:00:00 - 19.06.2018 20:00:00 (CEST)Rotterdam Zestienhoven, Pays-Bas (6344): visibility: 13.06.2018 20:00:00 - 19.06.2018 20:00:00 (CEST)Rotterdam Zestienhoven, Pays-Bas (6344): Quantités de précipitations: 13.06.2018 20:00:00 - 19.06.2018 20:00:00 (CEST)
Date & Time tt [°C] td [°C] tt 5cm [°C] ff [km/h] ff [knt] fx [km/h] fx [knt] dd ppp [hPa] vv [km] rr [mm]
19.06.2018 20:00:00 20,0 16,0 19,5 13 7 - - WSW 1023,5 10 -
19.06.2018 19:00:00 19,8 15,1 19,9 13 7 22 12 W 1023,6 10 0,0
19.06.2018 18:00:00 20,7 15,0 22,2 14 8 22 12 W 1023,7 46 0,0
19.06.2018 17:00:00 19,8 14,7 20,1 15 8 22 12 W 1023,9 10 0,0
19.06.2018 16:00:00 20,0 14,7 21,7 15 8 25 14 W 1024,0 10 0,0
19.06.2018 15:00:00 20,3 15,1 22,1 15 8 22 12 WNW 1023,9 10 0,0
19.06.2018 14:00:00 19,9 14,8 21,0 11 6 25 14 W 1023,9 10 0,0
19.06.2018 13:00:00 19,5 15,2 19,8 15 8 25 14 W 1023,8 10 0,0
19.06.2018 12:00:00 19,6 15,3 20,2 15 8 22 12 W 1023,3 10 0,0
19.06.2018 11:00:00 19,4 15,5 20,2 13 7 29 16 W 1023,2 10 0,0
19.06.2018 10:00:00 19,0 15,8 19,6 15 8 29 16 W 1022,8 10 0,0
19.06.2018 09:00:00 17,6 15,6 17,8 16 9 29 16 W 1022,5 10 0,0
19.06.2018 08:00:00 17,2 15,6 17,2 13 7 25 14 WSW 1021,9 10 0,0
19.06.2018 07:00:00 17,0 15,4 16,8 16 9 29 16 WSW 1021,4 10 0,0
19.06.2018 06:00:00 17,2 15,3 16,8 15 8 29 16 WSW 1021,1 10 0,0
19.06.2018 05:00:00 17,0 15,2 16,6 18 10 29 16 WSW 1020,5 13 0,0
19.06.2018 04:00:00 16,7 15,0 16,4 18 10 22 12 SW 1020,1 14 0,0
19.06.2018 03:00:00 16,3 14,1 15,8 18 10 29 16 SW 1020,0 16 0,0
19.06.2018 02:00:00 15,5 13,0 14,5 18 10 32 18 SW 1019,9 21 0,0
19.06.2018 01:00:00 16,3 12,4 15,1 24 13 36 19 SW 1019,8 10 0,0
19.06.2018 00:00:00 16,6 12,6 15,2 18 10 32 18 SSW 1020,1 10 0,0
18.06.2018 23:00:00 15,9 12,9 14,7 15 8 36 19 SW 1020,3 10 0,0
18.06.2018 22:00:00 16,7 12,8 15,2 15 8 32 18 SW 1020,0 10 0,0
18.06.2018 21:00:00 17,1 12,9 16,8 21 11 36 19 SW 1019,8 10 0,0
18.06.2018 20:00:00 18,2 12,5 18,6 18 10 36 19 SW 1019,7 10 0,0
18.06.2018 19:00:00 18,6 13,6 18,1 26 14 40 21 WSW 1019,8 10 0,0
18.06.2018 18:00:00 18,7 14,0 19,0 26 14 40 21 WSW 1019,7 10 0,0
18.06.2018 17:00:00 18,2 13,9 18,9 26 14 47 25 WSW 1019,8 10 0,0
18.06.2018 16:00:00 17,8 14,2 18,4 25 14 43 23 WSW 1019,8 28 0,0
18.06.2018 15:00:00 17,1 13,7 17,3 22 12 43 23 WSW 1019,8 10 0,0
18.06.2018 14:00:00 17,9 14,0 18,1 26 14 43 23 WSW 1019,7 10 0,0
18.06.2018 13:00:00 18,2 15,1 17,9 24 13 43 23 WSW 1019,6 10 0,0
18.06.2018 12:00:00 16,7 15,9 17,1 22 12 40 21 WSW 1019,1 4,1 0,2
18.06.2018 11:00:00 16,6 15,9 16,8 21 11 36 19 SW 1018,6 3,7 0,0
18.06.2018 10:00:00 16,3 15,3 16,2 22 12 32 18 SW 1018,6 7 0,0
18.06.2018 09:00:00 16,0 14,8 16,1 24 13 36 19 SW 1018,2 8 0,0
18.06.2018 08:00:00 16,1 14,2 16,1 24 13 47 25 SW 1017,9 10 0,0
18.06.2018 07:00:00 16,5 13,7 16,1 22 12 40 21 SW 1018,0 10 0,0
18.06.2018 06:00:00 16,1 13,2 15,7 21 11 32 18 SW 1018,1 10 0,0
18.06.2018 05:00:00 15,9 13,1 15,5 26 14 36 19 SW 1017,7 10 0,0
18.06.2018 04:00:00 15,7 12,8 15,1 22 12 36 19 SW 1017,9 10 0,0
18.06.2018 03:00:00 15,7 12,1 15,1 24 13 40 21 SW 1018,1 10 0,0
18.06.2018 02:00:00 15,0 11,9 14,2 21 11 32 18 SW 1018,2 10 0,0
18.06.2018 01:00:00 15,2 11,5 14,9 24 13 36 19 WSW 1018,8 10 0,0
18.06.2018 00:00:00 15,9 10,7 15,4 22 12 36 19 SW 1018,7 10 0,0
17.06.2018 23:00:00 14,9 10,4 14,0 16 9 43 23 WSW 1018,7 10 0,0
17.06.2018 22:00:00 16,0 9,9 15,3 26 14 40 21 WSW 1018,7 10 0,0
17.06.2018 21:00:00 16,0 10,7 15,5 24 13 40 21 WSW 1018,6 10 0,0
17.06.2018 20:00:00 16,6 10,7 17,0 24 13 43 23 WSW 1018,3 10 0,0
17.06.2018 19:00:00 16,9 11,3 17,2 26 14 36 19 WSW 1018,1 10 0,0
17.06.2018 18:00:00 16,7 9,7 17,4 22 12 36 19 WSW 1018,1 10 0,0
17.06.2018 17:00:00 18,4 10,5 20,2 26 14 40 21 W 1018,0 10 0,0
17.06.2018 16:00:00 17,4 11,0 18,3 22 12 32 18 W 1017,9 10 0,0
17.06.2018 15:00:00 16,5 11,3 16,3 15 8 32 18 W 1017,7 10 0,0
17.06.2018 14:00:00 18,1 11,2 20,1 16 9 36 19 WSW 1017,3 10 0,0
17.06.2018 13:00:00 16,7 10,7 17,6 21 11 36 19 WSW 1017,1 10 0,0
17.06.2018 12:00:00 16,9 11,2 18,4 21 11 32 18 WSW 1016,7 10 0,0
17.06.2018 11:00:00 16,4 11,1 17,6 18 10 29 16 WSW 1016,6 10 0,0
17.06.2018 10:00:00 15,8 11,0 16,5 16 9 32 18 WSW 1016,4 10 0,0
17.06.2018 09:00:00 15,8 11,2 16,1 21 11 36 19 W 1015,7 10 0,0
17.06.2018 08:00:00 15,3 10,7 14,9 18 10 29 16 WSW 1015,2 10 0,0
17.06.2018 07:00:00 15,0 11,5 14,5 22 12 36 19 WSW 1014,9 10 0,0
17.06.2018 06:00:00 14,7 12,4 14,2 22 12 32 18 WSW 1014,6 10 0,0
17.06.2018 05:00:00 14,8 13,2 14,3 21 11 32 18 WSW 1014,6 10 0,1
17.06.2018 04:00:00 15,3 11,7 15,0 24 13 36 19 SW 1014,3 10 0,0
17.06.2018 03:00:00 15,5 11,3 15,1 22 12 40 21 SW 1014,3 10 0,0
17.06.2018 02:00:00 15,7 10,9 14,7 26 14 40 21 SW 1014,5 10 0,0
17.06.2018 01:00:00 15,2 11,3 14,3 21 11 36 19 SW 1014,6 10 0,0
17.06.2018 00:00:00 15,6 11,8 14,7 22 12 40 21 WSW 1014,8 10 0,0
16.06.2018 23:00:00 15,8 11,3 14,6 24 13 40 21 SW 1014,9 10 0,0
16.06.2018 22:00:00 15,6 9,9 14,5 22 12 43 23 WSW 1014,8 10 0,0
16.06.2018 21:00:00 16,3 10,3 15,7 26 14 40 21 WSW 1014,8 10 0,0
16.06.2018 20:00:00 17,3 9,8 17,6 24 13 36 19 WSW 1014,7 10 0,0
16.06.2018 19:00:00 18,0 9,6 19,2 22 12 36 19 WSW 1014,9 10 0,0
16.06.2018 18:00:00 17,5 8,7 18,2 21 11 36 19 W 1015,2 10 0,0
16.06.2018 17:00:00 18,5 11,3 21,0 21 11 32 18 W 1014,9 10 0,0
16.06.2018 16:00:00 19,3 11,8 21,5 18 10 32 18 W 1014,8 10 0,0
16.06.2018 15:00:00 17,9 13,2 18,8 18 10 32 18 W 1014,7 10 0,0
16.06.2018 14:00:00 18,8 13,9 19,3 21 11 29 16 SW 1014,7 10 0,0
16.06.2018 13:00:00 17,4 13,3 18,4 16 9 32 18 SW 1014,7 10 0,0
16.06.2018 12:00:00 17,5 13,0 18,6 18 10 32 18 SW 1015,1 10 0,0
16.06.2018 11:00:00 17,2 10,9 17,9 18 10 29 16 SSW 1014,8 10 0,0
16.06.2018 10:00:00 16,9 10,0 18,0 15 8 25 14 S 1014,9 10 0,0
16.06.2018 09:00:00 16,5 11,0 16,6 13 7 22 12 SSW 1014,7 10 0,0
16.06.2018 08:00:00 15,7 11,1 15,5 11 6 25 14 WSW 1014,8 10 0,0
16.06.2018 07:00:00 15,8 12,0 14,7 11 6 18 10 SSW 1014,7 22 0,0
16.06.2018 06:00:00 14,8 12,1 13,4 7 4 11 6 WSW 1014,9 19 0,0
16.06.2018 05:00:00 14,7 12,7 12,9 4 2 7 4 W 1014,9 11 0,0
16.06.2018 04:00:00 14,9 12,8 13,5 4 2 11 6 W 1015,1 14 0,0
16.06.2018 03:00:00 15,3 13,7 14,0 4 2 18 10 W 1015,5 8 0,0
16.06.2018 02:00:00 16,2 14,5 15,2 11 6 18 10 W 1015,9 7 0,0
16.06.2018 01:00:00 16,5 14,1 14,6 0 0 4 2 N 1015,7 14 0,0
16.06.2018 00:00:00 16,3 14,3 14,7 5 3 7 4 W 1015,9 10 0,0
15.06.2018 23:00:00 16,9 14,3 15,8 5 3 7 4 W 1016,0 10 0,0
15.06.2018 22:00:00 17,4 14,4 16,3 5 3 11 6 N 1015,9 10 0,0
15.06.2018 21:00:00 18,2 14,1 17,5 5 3 11 6 N 1016,0 10 0,0
15.06.2018 20:00:00 19,7 13,7 20,0 11 6 14 8 N 1016,0 10 0,0
15.06.2018 19:00:00 20,4 14,1 21,1 9 5 22 12 N 1016,1 10 0,0
15.06.2018 18:00:00 21,9 13,5 23,8 13 7 22 12 WNW 1016,1 10 0,0
15.06.2018 17:00:00 21,9 14,1 24,4 11 6 22 12 WNW 1016,0 10 0,0
15.06.2018 16:00:00 21,9 11,2 23,5 5 3 18 10 WSW 1016,2 10 0,0
15.06.2018 15:00:00 22,4 11,2 25,3 5 3 14 8 W 1016,4 10 0,0
15.06.2018 14:00:00 20,4 12,7 21,0 8 4 22 12 SW 1016,5 10 0,0
15.06.2018 13:00:00 21,4 12,8 24,8 9 5 22 12 SSW 1016,8 10 0,0
15.06.2018 12:00:00 20,3 13,7 23,7 8 4 18 10 SE 1016,8 10 0,0
15.06.2018 11:00:00 19,0 14,2 22,2 9 5 18 10 S 1016,8 10 0,0
15.06.2018 10:00:00 18,2 14,8 19,7 8 4 14 8 SSE 1016,7 10 0,0
15.06.2018 09:00:00 17,4 14,7 17,8 8 4 11 6 SE 1016,4 9 0,0
15.06.2018 08:00:00 16,7 14,8 16,3 5 3 11 6 ESE 1016,1 6 0,0
15.06.2018 07:00:00 15,2 14,7 14,9 4 2 7 4 - 1015,9 5 0,0
15.06.2018 06:00:00 14,4 13,9 13,5 4 2 7 4 E 1015,7 6 0,0
15.06.2018 05:00:00 14,5 14,3 14,1 4 2 7 4 NNW 1015,7 6 0,0
15.06.2018 04:00:00 13,5 13,5 11,5 2 1 4 2 W 1015,5 3,0 0,0
15.06.2018 03:00:00 14,1 13,8 11,4 2 1 7 4 WSW 1015,6 8 0,0
15.06.2018 02:00:00 14,5 13,8 13,9 4 2 11 6 - 1015,8 9 0,0
15.06.2018 01:00:00 15,6 14,5 15,0 4 2 11 6 - 1015,8 10 0,0
15.06.2018 00:00:00 15,9 14,7 15,3 9 5 14 8 WSW 1015,8 10 0,0
14.06.2018 23:00:00 15,9 14,1 14,7 13 7 18 10 WSW 1015,5 10 0,0
14.06.2018 22:00:00 16,2 14,3 15,5 13 7 22 12 WSW 1015,1 10 0,0
14.06.2018 21:00:00 16,4 14,3 15,9 16 9 29 16 WSW 1014,3 10 0,0
14.06.2018 20:00:00 16,7 14,7 16,6 21 11 40 21 SW 1013,8 10 0,0
14.06.2018 19:00:00 16,5 14,8 16,7 24 13 40 21 SW 1013,4 10 0,0
14.06.2018 18:00:00 15,8 15,1 16,2 22 12 40 21 SW 1013,5 4,2 0,3
14.06.2018 17:00:00 15,8 14,7 15,8 22 12 54 29 SW 1013,4 4,5 0,5
14.06.2018 16:00:00 18,5 12,0 18,0 34 18 50 27 SW 1012,3 10 0,0
14.06.2018 15:00:00 19,4 12,4 19,2 31 17 50 27 SW 1012,4 10 0,0
14.06.2018 14:00:00 18,8 12,1 18,8 28 15 50 27 SSW 1012,3 10 0,0
14.06.2018 13:00:00 18,7 11,3 18,3 29 16 47 25 SSW 1012,4 10 0,0
14.06.2018 12:00:00 18,8 11,3 18,8 28 15 50 27 SSW 1012,8 10 0,0
14.06.2018 11:00:00 19,5 10,9 20,8 29 16 43 23 SSW 1012,8 10 0,0
14.06.2018 10:00:00 18,8 10,4 20,1 26 14 36 19 S 1012,9 10 0,0
14.06.2018 09:00:00 17,7 10,9 17,6 22 12 32 18 SSW 1013,2 10 0,0
14.06.2018 08:00:00 15,5 11,2 15,4 18 10 32 18 S 1013,4 10 0,0
14.06.2018 07:00:00 14,5 11,3 13,5 16 9 25 14 S 1013,7 10 0,0
14.06.2018 06:00:00 14,1 10,8 12,5 15 8 22 12 S 1014,2 10 0,0
14.06.2018 05:00:00 13,6 10,8 12,1 13 7 18 10 S 1014,7 10 0,0
14.06.2018 04:00:00 13,9 10,8 11,9 13 7 22 12 S 1015,3 10 0,0
14.06.2018 03:00:00 13,3 10,1 10,7 9 5 14 8 SSW 1015,8 10 0,0
14.06.2018 02:00:00 13,5 9,6 10,5 11 6 14 8 SSW 1016,2 10 0,0
14.06.2018 01:00:00 12,8 9,2 8,0 9 5 14 8 S 1016,6 10 0,0
14.06.2018 00:00:00 11,7 9,2 8,1 4 2 11 6 W 1017,1 10 0,0
13.06.2018 23:00:00 12,9 9,1 8,7 5 3 11 6 SW 1017,0 10 0,0
13.06.2018 22:00:00 13,6 8,8 10,4 5 3 11 6 W 1017,2 10 0,0
13.06.2018 21:00:00 15,9 9,1 13,8 4 2 11 6 - 1017,2 10 0,0
13.06.2018 20:00:00 16,6 9,1 15,6 8 4 18 10 WNW 1017,3 10 0,0

tt = Température de l'air
td = dewpoint
tt 5cm = Température de l'air 5cm
ff = Vitesse du vent
fx = gusts
dd = Direction du vent
ppp = reduced air pressure
vv = visibility
rr = Quantités de précipitations

stations d'obs. à proximité